Location: Kampong Besut
(2.7754°N, 101.7005°E)
Time: 15:15:10
(UTC+00:00)

Daily predictions for brighter satellites

Satellite Brightness Start Highest point End
(mag) Time Altitude Azimuth Time Altitude Azimuth Time Altitude Azimuth
Resurs 01 Rocket 2.2 12:01:55 11° SE 12:05:46 34° ENE 12:09:42 10° NNE
FALCON 9 R/B 3.3 12:01:05 10° WSW 12:06:50 87° NNW 12:30:39 10° ENE
CZ-4C R/B 1.0 12:05:43 10° SSW 12:09:17 59° ESE 12:12:50 10° NNE
Meteor 2-21 Rocket 4.4 12:03:35 10° N 12:09:48 86° E 12:16:00 10° S
SJ-6B 4.4 12:12:17 15° ENE 12:12:17 15° ENE 12:13:46 10° NE
ATLAS 5 CENTAUR R/B 4.1 12:09:48 10° NE 12:12:12 12° ENE 12:12:33 12° ENE
Delta 168 2.6 12:09:45 10° WSW 12:12:51 65° NNW 12:15:56 14° NE
Cosmos 2263 4.2 12:09:01 10° N 12:14:40 65° ENE 12:20:06 11° SSE
Cosmos 1371 Rocket 4.0 12:14:09 10° SSW 12:19:21 83° WNW 12:24:37 10° N
GPS 2-15 Rocket1 4.4 12:16:45 10° SSW 12:20:32 23° SSE 12:21:21 22° SE
SWIFT 3.3 12:18:57 10° W 12:21:42 28° NNW 12:23:46 14° NE
SAR-Lupe-1 4.1 12:22:25 32° SE 12:23:45 53° ENE 12:27:13 10° N
Cosmos 1727 Rocket 4.3 12:18:08 10° N 12:24:15 68° W 12:30:22 10° S
Cosmos 405 Rocket 2.5 12:21:55 10° N 12:24:23 42° ENE 12:24:23 42° ENE
Spot 4 Rocket 4.0 12:22:04 14° SSE 12:26:19 61° ENE 12:31:20 10° N
COSMOS 2455 3.8 12:21:55 10° NNE 12:26:44 25° ENE 12:27:31 25° E
Lacrosse 5 rocket 3.2 12:26:23 10° NNE 12:26:50 12° NNE 12:26:50 12° NNE
USA 59 Rocket 3.7 12:26:28 10° W 12:30:13 16° WSW 12:34:36 10° SSW
BLOCK DM-SL R/B 3.4 12:25:15 10° W 12:32:04 78° S 12:34:25 32° E
Cosmos 1605 Rocket 4.0 12:27:10 10° S 12:33:15 82° W 12:39:23 10° N
YAOGAN 3 4.3 12:33:47 32° SSE 12:35:40 74° E 12:39:50 10° N
Aurora 2 Rocket 4.5 12:37:09 10° N 12:39:19 14° NNE 12:39:39 14° NNE
Hubble Space Telescope 1.0 12:37:39 10° NW 12:41:13 45° NNE 12:41:13 45° NNE
Cosmos 2123 Rocket 3.9 12:35:26 10° N 12:41:45 83° E 12:47:58 10° S
USA 306 4.3 12:39:33 10° WSW 12:43:10 34° WNW 12:46:46 10° N
Cosmos 1331 Rocket 4.0 12:38:27 10° S 12:43:35 55° ESE 12:48:42 10° NNE
CZ-2D R/B 3.9 12:43:25 22° S 12:45:43 53° WSW 12:49:27 10° NNW
HBTSS-SV1 4.3 12:41:57 10° NW 12:46:23 84° NE 12:46:48 72° ESE
Cosmos 724 4.2 12:41:27 10° SSW 12:47:35 72° ESE 12:53:38 10° NNE
SAR-Lupe-4 4.2 12:46:32 36° SSW 12:47:36 51° WSW 12:51:01 10° NNW
Cosmos 2369 Rocket 3.8 12:46:44 10° NW 12:51:41 32° WSW 12:56:40 10° SSW
H-10 deb 2.5 12:46:29 10° W 12:54:17 51° N 12:54:41 48° NNE
Cosmos 407 Rocket 4.3 12:53:03 10° N 12:56:26 35° NE 12:56:26 35° NE
OceanSat 1 rocket 4.5 12:58:41 73° S 12:59:09 86° WSW 13:03:48 10° NNW
USA 215 3.3 13:08:34 56° ENE 13:09:04 58° NE 13:15:25 10° NNW
SL-19 R/B 4.3 13:09:26 55° SSW 13:10:34 72° WSW 13:16:09 10° NNW
ATLAS 2AS CENTAUR RB 4.1 13:09:01 10° SW 13:10:53 12° SSW 13:10:57 12° SSW
Cosmos 921 Rocket 4.2 13:12:22 10° NNW 13:15:22 38° WNW 13:15:22 38° WNW
MAQSAT/ARIANE V 3.0 13:03:10 10° W 13:19:56 61° N 13:20:08 60° N
Ariane H10+ 3.1 13:15:25 10° WSW 13:20:42 51° S 13:20:42 51° S
Palapa B4 Rocket 4.0 13:13:41 10° WNW 13:22:57 80° NNE 13:23:01 80° NNE
Cosmos 2100 Rocket 4.4 13:25:09 50° N 13:25:09 50° N 13:29:35 10° N
CZ-3 Stage 3 4.3 13:28:21 10° W 13:32:37 15° NW 13:34:50 11° NNW
ATLAS 5 CENTAUR R/B 3.5 13:48:09 10° NW 13:51:41 38° NW 13:51:41 38° NW
Ariane H10+ 4.4 19:35:48 73° NE 19:35:48 73° NE 19:48:57 10° E
Chandra Rocket (1) 4.4 20:36:44 22° ESE 20:36:44 22° ESE 20:39:40 10° ESE
Ariane H10 4.2 20:47:23 37° E 20:47:23 37° E 20:49:09 10° E
Cosmos 2344 4.1 20:54:29 54° WNW 20:54:41 54° WNW 21:02:40 10° N
SL-16 R/B 4.5 20:50:46 10° SE 20:55:53 27° ENE 21:01:00 10° NNE
CZ-2C R/B 3.4 20:51:47 10° NNE 20:55:03 41° ENE 20:55:03 41° ENE
USA 281 3.4 20:59:14 54° NW 20:59:14 54° NW 21:04:11 10° NNW
Ariane H10 3.8 21:05:18 26° SE 21:05:18 26° SE 21:09:10 10° ESE
SL-16 R/B 2.1 21:01:48 10° NNW 21:10:17 31° SSE 21:13:08 10° SSE
BREEZE-M R/B 4.5 21:12:10 55° WSW 21:14:01 74° NW 21:27:18 10° NNE
ARIANE 3 DEB 4.5 21:23:29 27° SSE 21:23:29 27° SSE 21:26:45 10° ESE
Cosmos 1862 Rocket 4.2 21:21:07 30° SSE 21:23:05 56° E 21:27:24 10° NNE
Ariane 42L R/B 3.6 21:27:14 44° SW 21:27:58 47° SSW 21:31:54 10° ESE
ARIANE 5 DEB (SYLDA) 3.1 21:28:39 65° WNW 21:29:19 85° N 21:36:57 10° E
Ariane H10+ 4.4 21:28:37 24° W 21:39:46 75° N 21:51:42 10° E
HETE-2 4.1 21:40:08 71° S 21:40:08 71° S 21:43:43 10° E
ARIANE 5 R/B 2.6 21:38:07 27° WNW 21:41:47 61° N 21:44:29 10° ENE
Fermi 3.4 21:43:05 63° W 21:43:32 73° SSW 21:47:22 10° ESE
NOSS 2-3 (E) 3.7 21:43:12 41° SW 21:44:37 60° WNW 21:48:38 10° NNE
SJ-11-01 4.2 21:40:14 10° N 21:44:44 60° WNW 21:46:44 32° SW
NOSS 2-3 (D) 3.6 21:43:13 39° SW 21:44:52 64° WNW 21:48:57 10° NNE
ARIANE 5 R/B 2.2 21:47:48 34° S 21:47:48 34° S 21:49:46 10° ESE
Meteor 2-5 Rocket 4.1 21:44:24 10° S 21:49:57 65° E 21:55:24 10° NNE
IUS R/B (1) 2.5 21:45:26 10° NW 21:50:34 58° NNE 21:52:56 10° ESE
NOSS 2-3 (C) 3.4 21:53:57 22° SSW 21:56:58 71° WNW 22:00:48 10° NNE
FengYun 1-2 T 4.5 21:52:08 10° N 21:57:25 46° WNW 22:01:39 16° SW
Cosmos 1943 3.1 21:53:39 10° NNW 21:59:14 89° ENE 22:04:50 10° SSE
Cosmos 1680 Rocket 3.4 21:55:26 13° SSW 22:00:01 66° WNW 22:05:11 10° N
Centaur D-1AR AC-36 4.4 22:00:24 10° NW 22:03:21 14° N 22:05:24 10° NNE
deb Ariane 3.0 22:02:11 25° WNW 22:03:34 57° N 22:08:24 10° E
ARIANE 5 R/B 1.5 22:05:09 19° WNW 22:07:22 62° N 22:11:19 10° E
IRS-1D 3.9 22:03:47 10° NNE 22:09:04 72° ESE 22:14:21 10° S
H-2A R/B 3.4 22:06:56 10° NNE 22:10:43 72° ESE 22:14:30 10° S
SWIFT 1.4 22:09:06 22° WNW 22:10:56 79° SSW 22:14:03 10° ESE
Cosmos 1939 Rocket 4.0 22:09:37 10° NNW 22:12:33 22° WNW 22:13:37 19° WSW
USA 59 Rocket 2.8 22:06:59 10° S 22:12:37 26° ESE 22:16:56 10° ENE
Cosmos 1733 Rocket 3.9 22:09:57 10° N 22:14:07 52° E 22:18:17 10° SSE
Cosmos 1400 Rocket 2.5 22:10:50 10° N 22:14:35 82° W 22:18:20 10° S
ARIANE 5 R/B 2.2 22:14:03 21° W 22:15:35 78° S 22:23:40 10° E
GOES 2 Rocket 3.6 22:13:19 18° W 22:16:41 48° NNW 22:20:48 10° NE
MOS 1 Rocket 4.1 22:16:03 10° NNE 22:20:09 47° E 22:24:14 10° S
CZ-4 R/B 4.3 22:17:02 10° NNE 22:21:52 65° ESE 22:26:45 10° S
Cosmos 2228 Rocket 3.8 22:19:37 10° SSW 22:23:43 34° W 22:27:47 10° NNW
BREEZE-M DEB (TANK) 3.0 22:21:33 12° SW 22:24:18 80° NW 22:32:21 10° NE
SL-8 Rocket 4.0 22:21:32 10° N 22:27:42 86° W 22:33:52 10° S
Exosat Rocket 4.3 22:26:09 10° SSW 22:32:40 45° W 22:37:44 10° N
ISS -2.1 22:30:24 10° NNW 22:33:34 39° NE 22:36:46 10° SE
USA 238 DEB 3.7 22:28:27 10° SSW 22:34:16 67° ESE 22:40:07 10° NNE
USA 238 3.8 22:28:39 10° SSW 22:34:28 66° ESE 22:40:18 10° NNE
Meteor 1-24 Rocket 4.4 22:32:05 10° SW 22:36:34 28° W 22:41:04 10° NNW
SL-16 R/B 3.4 22:34:00 10° SSW 22:39:07 27° WSW 22:44:15 10° NW
Palapa 6 Rocket 3.5 22:35:07 10° NW 22:39:28 53° NNE 22:43:15 10° E
Cosmos 1943 Rocket 2.5 22:35:09 10° SSW 22:40:27 46° WNW 22:45:49 10° N
Cosmos 2278 Rocket 2.2 22:35:09 10° SSW 22:40:45 64° WNW 22:46:21 10° N
IGS 5A 3.3 22:37:28 10° N 22:41:21 63° WNW 22:45:16 10° SSW
Cosmos 1048 Rocket 3.9 22:37:01 10° SSW 22:42:08 75° WNW 22:47:11 10° N
Ariane H10 4.1 22:19:52 10° W 22:48:49 57° SSW 22:53:24 10° ESE
ARIANE 44P R/B 4.2 23:13:38 10° W 23:36:03 67° S 23:39:58 10° E
